User: anonymous   Login
Location: Goheenville
(40.9070°N, 79.3720°W)
Time: 20:44:34
(UTC-05:00)
Language:

Cosmos 1727 Rocket - Orbit

View from above orbital plane
View from above orbital plane
View from above satellite
View from above satellite

Ground track
Ground track

The orbit data is extracted from the following two-line orbital elements,

1 16511U 86008B   18055.96078242 -.00000051 +00000-0 -68587-4 0  9999
2 16511 082.9440 032.4567 0023014 298.4315 114.1875 13.75816849610772
Epoch (UTC): 24 February 2018 23:03:31
Eccentricity: 0.0023014
inclination: 82.9440°
perigee height: 962 km
apogee height: 995 km
right ascension of ascending node: 32.4567°
argument of perigee: 298.4315°
revolutions per day: 13.75816849
mean anomaly at epoch: 114.1875°
orbit number at epoch: 61077

The dashed part of the orbit path shows where the satellite is in the earth's shadow,  

DLR